"Pseudo-MPEC" for C3TEUJ1

Created 2023 Sep 27 20:22:03 UT using Find_Orb

Click here for an explanation of pseudo-MPECs

 
 Astrometry: 
     C3TEUJ1*1C2023 09 18.32522001 48 13.424-04 44 06.32   ~9ICb       VNEOCP703
     C3TEUJ1 1C2023 09 18.33054401 48 13.147-04 44 10.07   ~9ICb 18.71GVNEOCP703
     C3TEUJ1 1C2023 09 18.33586801 48 12.899-04 44 14.10   ~9ICb 18.34GVNEOCP703
     C3TEUJ1 1C2023 09 18.34119901 48 12.575-04 44 20.15   ~9ICb       VNEOCP703
     C3TEUJ1 KB2023 09 19Aj?Od5xY7*00,qNS^+y9!CUAstrometryYIPredacted;jprZ5!DM45
     C3TEUJ1 KB2023 09 19R7vpp3TZw;RKA+/_#[\X:`b*VZk\CMlmw%W=/'8ok?click.nTDLM45
     C3TEUJ1 KB2023 09 19o^4S:Ir`_h)f[Qc:Stqp^xbSi';]here69c+xR8l!0R:forS\4gCM45
     C3TEUJ1 KB2023 09 19Nt=EexplanationD!x,.gh#%$=h/o@Gau2:iePoS=8'k0'51%A@lM45

Station data:
(703) Catalina Sky Survey  (N32.417003 W110.732640)  US/Arizona.  Observer E.
   J. Christensen. 0.68 m Schmidt + 10K CCD.
(M45) Starhopper Observatory, Sfantu Gheorghe  (N45.865582 E25.768900)
   Romania.  Observer F. Ursache. 0.41-m f/7.5 reflector + CMO.

Orbital elements:  C3TEUJ1
   Perihelion 2023 Jan 31.70468 +/- 192 TT = 16:54:44 (JD 2459976.20468)
Epoch 2023 Sep 19.0 TT = JDT 2460206.5   Earth MOID: 0.3176   Ma: 0.0536
M 124.49041329 +/- 80               (J2000 ecliptic)             AutoNEOCP
n   0.54056857 +/- 0.21             Peri.  103.10381 +/- 40
a   1.49245822 +/- 0.387            Node   127.76418 +/- 39
e   0.1294441 +/- 0.158             Incl.    7.18950 +/- 3.8
P   1.82/665.95d           H 17.71  G  0.15   U 11.7  SR
q 1.29926828 +/- 0.239    Q 1.68564817 +/- 0.936
From 8 observations 2023 Sept. 18-19 (17.0 hr); mean residual 0".42
Residuals in arcseconds: 
230918 703  .23-  .48-    230918 703  .12-  .67-    230919 M45  .25-  .05+    
230918 703  .11-  .32+    230919 M45  .60+  .17-    230919 M45  .53-  .33-    
230918 703  .45+  .83+    230919 M45  .18+  .45+    

Ephemerides (geocentric):
Date (UTC) HH   RA             Dec           delta  r     elong  mag " sig PA
---- --------  ------------   ------------  ------ ------ -----  --- --------
2023 09 27 20  01 38 28.890   -06 58 46.41  .65616 1.6280 157.5 18.6 1502 123
2023 09 27 21  01 38 25.878   -06 59 20.99  .65612 1.6280 157.5 18.6 1518 123
2023 09 27 22  01 38 22.863   -06 59 55.56  .65609 1.6281 157.6 18.6 1534 123
2023 09 27 23  01 38 19.844   -07 00 30.11  .65605 1.6281 157.6 18.6 1550 123
2023 09 28 00  01 38 16.822   -07 01 04.64  .65601 1.6282 157.6 18.6 1566 123
2023 09 28 01  01 38 13.797   -07 01 39.16  .65598 1.6282 157.7 18.6 1582 123
2023 09 28 02  01 38 10.769   -07 02 13.66  .65594 1.6283 157.7 18.6 1599 123
2023 09 28 03  01 38 07.737   -07 02 48.15  .65591 1.6283 157.7 18.6 1615 123
2023 09 28 04  01 38 04.702   -07 03 22.62  .65587 1.6284 157.8 18.6 1632 123
2023 09 28 05  01 38 01.663   -07 03 57.08  .65584 1.6284 157.8 18.6 1649 123
2023 09 28 06  01 37 58.621   -07 04 31.52  .65580 1.6285 157.9 18.6 1666 123
2023 09 28 07  01 37 55.576   -07 05 05.94  .65577 1.6285 157.9 18.6 1683 123
2023 09 28 08  01 37 52.528   -07 05 40.35  .65573 1.6286 157.9 18.6 1700 123
2023 09 28 09  01 37 49.477   -07 06 14.74  .65570 1.6286 158.0 18.6 1717 123
2023 09 28 10  01 37 46.422   -07 06 49.12  .65567 1.6287 158.0 18.6 1734 123
2023 09 28 11  01 37 43.364   -07 07 23.48  .65564 1.6287 158.0 18.6 1752 123
2023 09 28 12  01 37 40.302   -07 07 57.83  .65560 1.6288 158.1 18.6 1769 123
2023 09 28 13  01 37 37.238   -07 08 32.16  .65557 1.6288 158.1 18.6 1787 123
2023 09 28 14  01 37 34.170   -07 09 06.47  .65554 1.6289 158.1 18.6 1805 123
2023 09 28 15  01 37 31.099   -07 09 40.76  .65551 1.6289 158.2 18.6 1822 123
2023 09 28 16  01 37 28.025   -07 10 15.04  .65548 1.6290 158.2 18.6 1840 123
2023 09 28 17  01 37 24.947   -07 10 49.31  .65545 1.6290 158.2 18.6 1858 123
2023 09 28 18  01 37 21.867   -07 11 23.55  .65541 1.6291 158.3 18.6 1877 123
2023 09 28 19  01 37 18.783   -07 11 57.78  .65538 1.6291 158.3 18.6 1895 123
2023 09 28 20  01 37 15.696   -07 12 31.99  .65535 1.6292 158.3 18.6 1913 123
2023 09 28 21  01 37 12.606   -07 13 06.19  .65533 1.6292 158.4 18.6 1932 123
2023 09 28 22  01 37 09.513   -07 13 40.36  .65530 1.6293 158.4 18.6 1951 123
2023 09 28 23  01 37 06.416   -07 14 14.52  .65527 1.6293 158.5 18.6 1969 123
2023 09 29 00  01 37 03.317   -07 14 48.67  .65524 1.6294 158.5 18.6 1988 123
2023 09 29 01  01 37 00.214   -07 15 22.79  .65521 1.6294 158.5 18.6 2007 123
2023 09 29 02  01 36 57.108   -07 15 56.90  .65518 1.6295 158.6 18.6 2026 123
2023 09 29 03  01 36 53.999   -07 16 30.99  .65516 1.6295 158.6 18.6 2046 123
2023 09 29 04  01 36 50.887   -07 17 05.06  .65513 1.6296 158.6 18.6 2065 123
2023 09 29 05  01 36 47.772   -07 17 39.11  .65510 1.6296 158.7 18.6 2084 123
2023 09 29 06  01 36 44.654   -07 18 13.15  .65508 1.6297 158.7 18.6 2104 123
2023 09 29 07  01 36 41.533   -07 18 47.17  .65505 1.6297 158.7 18.6 2124 123
2023 09 29 08  01 36 38.408   -07 19 21.17  .65502 1.6298 158.8 18.6 2144 123
2023 09 29 09  01 36 35.281   -07 19 55.15  .65500 1.6298 158.8 18.6 2164 123
2023 09 29 10  01 36 32.150   -07 20 29.12  .65497 1.6299 158.8 18.6 2184 123
2023 09 29 11  01 36 29.017   -07 21 03.06  .65495 1.6299 158.9 18.6 2204 123
2023 09 29 12  01 36 25.880   -07 21 36.99  .65492 1.6300 158.9 18.6 2224 123
2023 09 29 13  01 36 22.741   -07 22 10.90  .65490 1.6300 158.9 18.6 2245 123
2023 09 29 14  01 36 19.598   -07 22 44.79  .65488 1.6301 159.0 18.6 2265 123
2023 09 29 15  01 36 16.452   -07 23 18.66  .65485 1.6301 159.0 18.6 2286 123
2023 09 29 16  01 36 13.304   -07 23 52.51  .65483 1.6301 159.0 18.6 2307 123
2023 09 29 17  01 36 10.152   -07 24 26.34  .65481 1.6302 159.1 18.6 2327 123
2023 09 29 18  01 36 06.998   -07 25 00.15  .65478 1.6302 159.1 18.6 2349 123
2023 09 29 19  01 36 03.840   -07 25 33.95  .65476 1.6303 159.1 18.6 2370 123